Terug naar catalogus

STARLINK-30977

ActiefCommunicatieVLEO
NORAD 58459·PAYLOAD·🇺🇸 United States

Gelanceerd Nov 28, 2023 vanaf Cape Canaveral Space Force Station

Loading…

Volgende Passages (komende 24 uur)

TLE

VersSource: CelesTrak SupGP

Epoch: Sep 15, 2026, 03:13 UTC

1 58459C 23183Y   26258.13451389 -.00026222  00000+0 -94974-3 0  2584
2 58459  43.0023  52.0486 0001498 267.0849  95.2380 15.27591899    12

Volg STARLINK-30977 in realtime met AllMySat

Download on the App Store